TimeEST,TemperatureF,Dew PointF,Humidity,Sea Level PressureIn,VisibilityMPH,Wind Direction,Wind SpeedMPH,Gust SpeedMPH,PrecipitationIn,Events,Conditions,WindDirDegrees,DateUTC
12:15 AM,19.4,14.0,80,30.02,5.0,West,10.4,20.7,0.00,,Mostly Cloudy,280,2013-02-20 05:15:00
12:35 AM,19.4,14.0,80,30.02,5.0,WNW,9.2,-,0.00,,Overcast,300,2013-02-20 05:35:00
12:55 AM,17.6,14.0,86,30.02,3.0,WNW,12.7,16.1,0.00,,Mostly Cloudy,300,2013-02-20 05:55:00
1:15 AM,17.6,14.0,86,30.03,5.0,West,9.2,-,0.00,,Overcast,280,2013-02-20 06:15:00
1:35 AM,17.6,14.0,86,30.03,3.0,WNW,9.2,-,0.00,,Overcast,290,2013-02-20 06:35:00
1:55 AM,17.6,14.0,86,30.03,4.0,WNW,9.2,-,0.00,,Overcast,290,2013-02-20 06:55:00
2:15 AM,17.6,12.2,79,30.04,7.0,WNW,8.1,-,0.00,,Overcast,290,2013-02-20 07:15:00
2:35 AM,17.6,12.2,79,30.04,10.0,WNW,10.4,16.1,0.00,,Mostly Cloudy,290,2013-02-20 07:35:00
2:55 AM,17.6,12.2,79,30.04,10.0,West,10.4,-,0.00,,Mostly Cloudy,280,2013-02-20 07:55:00
3:15 AM,17.6,12.2,79,30.05,7.0,West,10.4,-,0.00,,Mostly Cloudy,270,2013-02-20 08:15:00
3:35 AM,17.6,12.2,79,30.06,9.0,West,10.4,-,0.00,,Mostly Cloudy,280,2013-02-20 08:35:00
3:55 AM,17.6,12.2,79,30.05,10.0,West,11.5,-,0.00,,Overcast,270,2013-02-20 08:55:00
4:15 AM,17.6,10.4,73,30.05,10.0,West,13.8,-,0.00,,Overcast,270,2013-02-20 09:15:00
4:35 AM,15.8,10.4,79,30.06,10.0,West,11.5,-,0.00,,Overcast,270,2013-02-20 09:35:00
4:55 AM,15.8,10.4,79,30.07,10.0,West,11.5,-,0.00,,Mostly Cloudy,270,2013-02-20 09:55:00
5:15 AM,14.0,10.4,86,30.07,10.0,West,12.7,-,0.00,,Scattered Clouds,270,2013-02-20 10:15:00
5:35 AM,15.8,10.4,79,30.08,10.0,West,11.5,-,0.00,,Mostly Cloudy,270,2013-02-20 10:35:00
5:55 AM,15.8,10.4,79,30.08,10.0,West,18.4,24.2,0.00,,Overcast,260,2013-02-20 10:55:00
6:15 AM,15.8,10.4,79,30.09,10.0,West,13.8,-,0.00,,Overcast,270,2013-02-20 11:15:00
6:35 AM,15.8,10.4,79,30.10,5.0,West,10.4,-,0.00,,Overcast,280,2013-02-20 11:35:00
6:55 AM,15.8,12.2,86,30.10,10.0,WNW,12.7,-,0.00,,Mostly Cloudy,290,2013-02-20 11:55:00
7:15 AM,15.8,8.6,73,30.12,10.0,WNW,16.1,23.0,0.00,,Overcast,290,2013-02-20 12:15:00
7:55 AM,14.0,8.6,79,30.13,9.0,West,11.5,-,0.00,,Mostly Cloudy,270,2013-02-20 12:55:00
8:15 AM,14.0,8.6,79,30.13,10.0,West,13.8,18.4,0.00,,Partly Cloudy,260,2013-02-20 13:15:00
8:35 AM,14.0,10.4,86,30.13,10.0,West,13.8,18.4,0.00,,Clear,260,2013-02-20 13:35:00
8:55 AM,14.0,10.4,86,30.14,10.0,West,17.3,-,0.00,,Clear,260,2013-02-20 13:55:00
9:15 AM,14.0,8.6,79,30.15,10.0,West,12.7,18.4,0.00,,Mostly Cloudy,260,2013-02-20 14:15:00
9:35 AM,14.0,8.6,79,30.15,10.0,West,16.1,23.0,0.00,,Overcast,260,2013-02-20 14:35:00
9:55 AM,15.8,8.6,73,30.15,10.0,West,15.0,18.4,0.00,,Overcast,270,2013-02-20 14:55:00
10:15 AM,15.8,8.6,73,30.16,10.0,West,11.5,20.7,0.00,,Overcast,270,2013-02-20 15:15:00
10:35 AM,17.6,10.4,73,30.16,10.0,West,17.3,21.9,0.00,,Overcast,260,2013-02-20 15:35:00
10:55 AM,17.6,10.4,73,30.16,10.0,West,16.1,19.6,0.00,,Overcast,260,2013-02-20 15:55:00
11:15 AM,17.6,10.4,73,30.17,10.0,West,11.5,17.3,0.00,,Overcast,270,2013-02-20 16:15:00
11:35 AM,17.6,10.4,73,30.17,10.0,West,13.8,21.9,0.00,,Mostly Cloudy,270,2013-02-20 16:35:00
11:50 AM,17.6,10.4,73,30.17,10.0,West,17.3,20.7,0.00,,Mostly Cloudy,260,2013-02-20 16:50:00
12:15 PM,19.4,12.2,74,30.18,10.0,West,16.1,-,0.00,,Scattered Clouds,270,2013-02-20 17:15:00
12:35 PM,19.4,12.2,74,30.18,10.0,West,12.7,20.7,0.00,,Mostly Cloudy,280,2013-02-20 17:35:00
12:50 PM,19.4,12.2,74,30.17,10.0,West,15.0,-,0.00,,Mostly Cloudy,270,2013-02-20 17:50:00
1:15 PM,21.2,12.2,68,30.17,8.0,West,12.7,16.1,0.00,,Scattered Clouds,270,2013-02-20 18:15:00
1:35 PM,21.2,14.0,74,30.17,10.0,West,10.4,18.4,0.00,,Scattered Clouds,270,2013-02-20 18:35:00
1:55 PM,21.2,14.0,74,30.17,9.0,WNW,11.5,-,0.00,,Scattered Clouds,290,2013-02-20 18:55:00
2:15 PM,21.2,14.0,74,30.17,9.0,West,12.7,-,0.00,,Mostly Cloudy,270,2013-02-20 19:15:00
2:35 PM,21.2,14.0,74,30.18,7.0,West,13.8,-,0.00,,Mostly Cloudy,270,2013-02-20 19:35:00
3:15 PM,21.2,14.0,74,30.19,7.0,West,13.8,18.4,0.00,,Scattered Clouds,270,2013-02-20 20:15:00
3:35 PM,21.2,14.0,74,30.20,8.0,West,13.8,19.6,0.00,,Partly Cloudy,260,2013-02-20 20:35:00
3:50 PM,21.2,14.0,74,30.19,8.0,WNW,13.8,20.7,0.00,,Partly Cloudy,290,2013-02-20 20:50:00
4:15 PM,21.2,14.0,74,30.20,7.0,West,12.7,-,0.00,,Scattered Clouds,280,2013-02-20 21:15:00
4:35 PM,21.2,14.0,74,30.20,8.0,West,12.7,-,0.00,,Scattered Clouds,280,2013-02-20 21:35:00
4:55 PM,21.2,14.0,74,30.20,7.0,West,12.7,16.1,0.00,,Scattered Clouds,270,2013-02-20 21:55:00
5:15 PM,21.2,14.0,74,30.20,7.0,West,9.2,-,0.00,,Mostly Cloudy,270,2013-02-20 22:15:00
5:35 PM,21.2,15.8,80,30.20,5.0,West,10.4,-,0.00,,Mostly Cloudy,270,2013-02-20 22:35:00
5:55 PM,21.2,15.8,80,30.20,7.0,West,10.4,-,0.00,,Mostly Cloudy,270,2013-02-20 22:55:00
6:15 PM,21.2,15.8,80,30.20,7.0,West,8.1,-,0.00,,Mostly Cloudy,270,2013-02-20 23:15:00
6:35 PM,21.2,15.8,80,30.21,7.0,West,10.4,-,0.00,,Mostly Cloudy,260,2013-02-20 23:35:00
6:50 PM,21.2,15.8,80,30.22,8.0,West,9.2,-,0.00,,Mostly Cloudy,260,2013-02-20 23:50:00
7:15 PM,21.2,17.6,86,30.23,8.0,West,9.2,-,0.00,,Mostly Cloudy,260,2013-02-21 00:15:00
7:35 PM,21.2,17.6,86,30.22,5.0,West,10.4,-,0.00,,Overcast,260,2013-02-21 00:35:00
7:50 PM,21.2,17.6,86,30.22,5.0,West,9.2,-,0.00,,Overcast,260,2013-02-21 00:50:00
8:15 PM,21.2,17.6,86,30.23,3.0,West,8.1,-,0.00,,Overcast,270,2013-02-21 01:15:00
8:35 PM,21.2,17.6,86,30.23,5.0,West,9.2,-,0.00,,Overcast,260,2013-02-21 01:35:00
8:50 PM,19.4,17.6,93,30.23,5.0,West,6.9,-,0.00,,Overcast,270,2013-02-21 01:50:00
9:15 PM,19.4,17.6,93,30.22,7.0,West,6.9,-,0.00,,Mostly Cloudy,270,2013-02-21 02:15:00
9:35 PM,21.2,17.6,86,30.22,8.0,West,5.8,-,0.00,,Overcast,270,2013-02-21 02:35:00
9:55 PM,21.2,17.6,86,30.22,5.0,West,5.8,-,0.00,,Overcast,270,2013-02-21 02:55:00
10:15 PM,21.2,19.4,93,30.23,5.0,West,6.9,-,0.00,,Overcast,270,2013-02-21 03:15:00
10:35 PM,21.2,17.6,86,30.22,8.0,West,8.1,-,0.00,,Overcast,280,2013-02-21 03:35:00
10:55 PM,21.2,17.6,86,30.22,8.0,WNW,5.8,-,0.00,,Overcast,290,2013-02-21 03:55:00
11:15 PM,21.2,17.6,86,30.21,9.0,West,5.8,-,0.00,,Overcast,270,2013-02-21 04:15:00
11:35 PM,21.2,17.6,86,30.21,8.0,West,5.8,-,0.00,,Overcast,270,2013-02-21 04:35:00
11:55 PM,21.2,19.4,93,30.21,6.0,West,5.8,-,0.00,,Overcast,280,2013-02-21 04:55:00